Tracking 29892 objects as of 21-Nov-2024
HD Live streaming from Space Station
objects crossing your sky now

ORBCOMM FM 27

Track ORBCOMM FM 27 now!
10-day predictions
ORBCOMM FM 27 is classified as:


NORAD ID: 25481
Int'l Code: 1998-053G
Perigee: 775.2 km
Apogee: 776.0 km
Inclination: 45.0 °
Period: 100.2 minutes
Semi major axis: 7146 km
RCS: 0.6177 m2 (medium)
Launch date: September 23, 1998
Source: ORBCOMM (ORB)
Launch site: Pegasus launched from Eastern Range Air Space (ERAS)
Your satellite tracking list
Your tracking list is empty




NASA's NSSDC Master Catalog

Two Line Element Set (TLE):
1 25481U 98053G   24325.86029236  .00001748  00000-0  63173-3 0  9990
2 25481  45.0043 174.6261 0000586 127.6111 232.4790 14.36984835367692
Source of the keplerian elements: AFSPC